SCP
0 0 0 0 0 0 0 0 0 0 0 0 0 0 0 0 0 0 0 0 0 0 0 0 0 0 0 0 0 0 0 0 0 0 0 0 0 0 0 0 0 0 0
0 0 0 0 0 0 0 0 0 0 0 0 0 0 0 0 0 0 0 0 0 0 0 0 0 0 0 0 0 0 0 0 0 0 0 0 0 0 0 0 0 0 0
0 0 0 0 0 0 0 0 0 0 0 0 0 0 0 0 0 0 0 0 0 0 0 0 0 0 0 0 0 0 0 0 0 0 0 0 0 0 0 0 0 0 0
0 0 0 0 0 0 0 0 0 0 0 0 0 0 0 0 0 0 0 0 0 0 0 0 0 0 0 0 0 0 0 0 0 0 0 0 0 0 0 0 0 0 0
0 0 0 0 0 0 0 0 0 0 0 0 0 0 0 0 0 0 0 0 0 0 0 0 0 0 0 0 0 0 0 0 0 0 0 0 0 0 0 0 0 0 0
0 0 0 0 0 0 0 0 0 0 0 0 0 0 0 0 0 0 0 0 0 0 0 0 0 0 0 0 0 0 0 0 0 0 0 0 0 0 0 0 0 0 0
0 0 0 0 0 0 0 0 0 0 0 0 0 0 0 0 0 0 0 0 0 0 0 0 0 0 0 0 0 0 0 0 0 0 0 0 0 0 0 0 0 0 0
0 0 0 0 0 0 0 0 0 0 0 0 0 0 0 0 0 0 0 0 0 0 0 0 0 0 0 0 0 0 0 0 0 0 0 0 0 0 0 0 0 0 0
0 0 0 0 0 0 0 0 0 0 0 0 0 0 0 0 0 0 0 0 0 0 0 0 0 0 0 0 0 0 0 0 0 0 0 0 0 0 0 0 0 0 0
0 0 0 0 0 0 0 0 0 0 0 0 0 0 0 0 0 0 0 0 0 0 0 0 0 0 0 0 0 0 0 0 0 0 0 0 0 0 0 0 0 0 0
0 0 0 0 0 0 0 0 0 0 0 0 0 0 0 0 0 0 0 0 0 0 0 0 0 0 0 0 0 0 0 0 0 0 0 0 0 0 0 0 0 0 0
0 0 0 0 0 0 0 0 0 0 0 0 0 0 0 0 0 0 0 0 0 0 0 0 0 0 0 0 0 0 0 0 0 0 0 0 0 0 0 0 0 0 0
0 0 0 0 0 0 0 0 0 0 0 0 0 0 0 0 0 0 0 0 0 0 0 0 0 0 0 0 0 0 0 0 0 0 0 0 0 0 0 0 0 0 0
0 0 0 0 0 0 0 0 0 0 0 0 0 0 0 0 0 0 0 0 0 0 0 0 0 0 0 0 0 0 0 0 0 0 0 0 0 0 0 0 0 0 0
0 0 0 0 0 0 0 0 0 0 0 0 0 0 0 0 0 0 0 0 0 0 0 0 0 0 0 0 0 0 0 0 0 0 0 0 0 0 0 0 0 0 0
0 0 0 0 0 0 0 0 0 0 0 0 0 0 0 0 0 0 0 0 0 0 0 0 0 0 0 0 0 0 0 0 0 0 0 0 0 0 0 0 0 0 0
0 0 0 0 0 0 0 0 0 0 0 0 0 0 0 0 0 0 0 0 0 0 0 0 0 0 0 0 0 0 0 0 0 0 0 0 0 -0 0 0 0 0 0
0 0 0 0 0 0 0 0 0 0 0 0 0 0 0 0 0 0 0 0 0 0 0 0 0 0 0 0 0 0 0 0 0 0 0 0 0 0 0 0 0 -0 -0
0 0 0 0 0 0 0 0 0 0 0 0 0 0 0 0 0 0 0 0 0 0 0 0 0 0 0 0 0 0 0 0 0 0 0 0 0 0 0 0 0 0 0
0 0 -0 0 0 0 0 0 0 0 0 0 -0 0 0 0 0 0 0 0 0 0 0 0 0 0 0 0 0 0 0 0 0 0 0 0 0 0 0 0 0 0 0
0 0 -0 -0 0 0 0 0 0 0 0 0 0 0 0 0 0 0 0 0 0 0 0 0 0 0 0 0 0 0 0 0 0 0 0 0 0 0 0 0 0 0 0
0 0 0 -0 0 0 0 0 0 0 0 0 -0 -0 0 0 0 0 0 0 0 0 0 0 0 0 0 0 0 0 0 0 0 0 0 0 0 0 0 0 0 0 0
0 0 0 0 0 0 0 0 0 0 0 -0 -0 -0 -0 -0 0 0 0 0 0 0 0 0 0 0 0 0 0 0 0 0 0 0 0 0 0 0 0 0 0 0 0
0 0 0 0 0 0 0 0 0 -0 0 -0 -0 -0 0 0 0 0 0 0 0 0 0 0 0 0 0 0 0 0 0 0 0 0 0 0 0 0 0 0 0 0 0
0 0 0 0 0 0 0 0 0 0 0 0 0 0 0 0 0 0 0 0 0 0 0 0 0 0 0 0 0 0 0 0 0 0 0 0 0 0 0 0 0 0 0
0 0 0 0 0 0 0 0 0 -0 0 0 0 0 0 0 0 -0 -0 -0 -0 -0 -0 -0 0 0 0 0 0 0 0 0 0 0 0 0 0 0 0 0 0 0 0
Wind_Speed
3 3 3 2 3 3 3 3 3 5 4 6 5 5 6 6 6 6 6 11 11 11 11 10 9 9 9 9 9 9 9 8 8 8 8 8 8 8 7 6 6 6 5
3 2 3 3 3 3 3 3 5 5 5 5 6 6 6 6 7 6 6 8 11 12 12 11 11 10 10 10 10 9 9 9 9 9 9 9 9 9 8 7 7 7 6
4 3 3 3 3 3 4 3 5 5 5 6 6 6 6 6 6 7 6 5 7 11 12 12 12 12 11 11 10 9 9 8 8 8 9 9 9 8 8 8 7 7 6
5 4 3 3 3 3 3 3 3 4 5 5 5 5 6 5 7 7 6 6 5 5 9 12 12 13 13 12 12 10 10 9 9 8 8 8 8 8 8 8 8 7 6
5 4 3 3 3 3 3 3 4 4 5 5 5 5 5 5 6 6 7 7 7 6 5 7 9 12 13 14 13 12 11 10 10 9 8 8 8 8 7 8 8 8 8
5 5 3 4 3 3 3 4 5 5 5 4 6 6 6 5 5 6 6 6 7 8 7 7 5 7 12 14 14 13 12 11 10 10 9 9 8 7 7 7 8 8 8
5 5 3 5 3 4 4 5 4 6 4 4 5 6 6 7 6 6 5 5 7 7 7 7 7 6 5 10 14 14 13 12 12 11 10 9 9 8 8 8 8 9 8
6 4 5 4 4 3 4 4 3 3 3 1 1 3 4 5 5 6 5 5 6 6 7 8 8 8 7 6 9 14 14 13 13 11 11 10 10 10 10 9 9 10 10
5 5 6 4 4 3 3 3 3 3 3 2 2 2 1 3 3 4 6 6 6 6 6 7 9 8 8 8 8 12 14 13 14 13 12 12 12 12 11 10 11 11 11
5 5 5 5 5 4 3 3 3 2 2 2 2 3 3 3 1 3 3 5 6 7 7 6 7 8 9 7 9 14 15 14 14 15 14 14 13 12 12 12 11 11 10
5 5 5 5 5 4 4 4 3 2 2 2 2 2 3 2 1 2 3 3 4 5 6 7 6 6 8 8 8 13 15 14 14 15 15 14 14 13 13 12 12 11 10
4 5 5 5 5 5 5 4 4 4 3 3 2 2 2 2 2 2 3 3 3 4 5 6 6 6 6 7 11 13 14 14 14 14 15 15 15 14 14 13 13 12 11
3 4 4 4 5 5 5 5 5 5 5 4 3 3 3 3 2 2 2 2 3 3 4 5 5 5 6 6 7 9 13 14 14 14 14 14 14 14 14 14 14 13 13
4 4 4 5 5 5 5 5 4 5 5 5 5 4 3 3 3 2 2 1 2 3 3 5 4 6 5 5 7 5 9 13 13 13 13 14 14 14 14 14 14 14 13
4 4 4 5 5 5 5 5 4 5 5 5 5 5 4 4 3 3 2 2 2 1 3 4 3 5 4 5 6 6 8 12 12 12 12 12 12 13 13 13 13 13 13
4 5 4 5 5 5 5 5 5 5 5 5 4 5 4 4 3 3 2 2 3 2 3 3 3 4 5 4 6 6 6 7 12 11 11 11 11 11 11 12 12 12 12
5 5 4 4 5 5 5 5 4 4 5 5 5 6 5 5 3 3 3 3 3 2 3 3 3 3 4 5 4 4 4 4 7 11 10 10 11 10 10 11 11 11 11
4 5 5 4 4 4 4 5 5 4 5 5 5 5 5 4 4 4 3 4 3 3 2 3 3 3 4 4 4 4 4 4 4 8 8 9 9 9 9 9 10 10 10
5 5 5 4 4 4 4 4 4 4 5 5 5 5 5 4 4 3 3 3 3 3 2 2 3 2 2 3 3 3 4 3 3 4 4 5 7 7 7 8 8 8 9
6 5 5 4 4 4 4 4 4 4 4 5 4 4 4 4 4 3 3 3 2 2 2 2 2 2 2 3 2 2 2 3 3 3 3 2 2 2 3 5 6 7 7
6 5 5 4 4 3 2 3 4 4 4 4 4 4 5 6 8 5 3 3 2 1 1 1 1 1 2 2 3 3 3 3 2 3 3 3 2 2 1 2 4 6 6
6 6 5 5 4 3 4 2 1 4 3 3 3 3 4 4 5 5 6 7 6 3 2 2 1 2 3 3 3 3 3 4 2 3 4 3 3 3 3 3 5 5 6
6 6 5 5 5 5 6 5 2 1 2 2 2 3 2 3 2 3 4 3 3 4 4 4 3 3 3 3 4 4 4 5 4 4 5 4 3 3 3 2 2 3 5
7 6 6 6 5 6 7 7 5 4 3 3 2 2 2 3 2 0 1 1 2 2 2 2 3 3 4 4 4 5 5 4 3 2 3 4 4 4 4 3 1 2 5
7 7 6 6 6 7 8 8 7 4 3 3 2 1 1 2 3 2 1 1 1 1 2 2 4 4 4 5 5 4 4 4 4 3 2 4 5 5 5 4 2 3 5
7 6 6 6 7 6 9 9 8 4 4 3 3 3 2 0 2 1 2 1 1 1 1 2 2 3 2 1 3 4 4 5 5 4 3 4 5 6 5 4 4 5 5
Wind_Direction
59 70 80 75 76 81 98 96 100 96 94 88 87 88 86 80 73 69 79 60 46 42 42 39 36 38 42 41 38 34 33 33 32 30 24 22 21 24 21 26 26 29 26
59 66 85 78 78 76 72 91 98 102 90 84 81 82 79 79 73 67 74 82 63 47 41 38 38 42 42 39 36 33 33 33 31 28 25 23 23 24 23 26 28 31 33
56 70 70 79 78 88 93 86 95 97 99 100 91 83 75 66 68 67 64 64 78 66 49 40 40 42 41 38 37 35 34 34 33 33 29 25 22 22 25 25 29 34 41
58 63 67 73 74 85 100 104 101 100 99 97 90 85 86 74 68 64 64 63 55 62 63 46 41 39 36 36 35 35 34 35 37 37 34 29 24 24 26 29 34 41 48
55 69 59 64 83 90 98 106 97 101 101 101 101 91 82 72 67 64 63 60 60 53 54 67 55 45 37 33 33 34 33 36 36 36 35 32 29 28 29 34 41 48 52
49 62 75 80 80 94 94 98 102 97 101 107 99 89 79 78 69 61 58 60 55 54 45 42 50 63 49 37 31 32 32 34 35 34 34 35 32 33 40 43 48 55 62
55 60 56 68 67 88 97 109 111 115 109 114 114 108 94 76 70 64 54 55 58 53 53 46 40 33 54 54 37 29 30 32 33 33 35 37 37 42 50 54 58 59 64
52 54 59 74 78 89 93 99 114 117 113 114 135 140 127 107 70 59 59 53 51 51 48 47 47 41 34 37 47 33 28 29 33 36 38 41 45 48 54 58 64 64 63
52 52 55 59 69 84 91 92 120 129 124 102 33 351 72 101 109 74 55 57 51 46 47 43 44 39 39 38 36 37 28 28 33 38 41 46 50 50 55 59 65 64 64
61 56 59 56 66 69 86 94 81 110 127 120 91 32 25 70 133 122 88 67 57 49 45 43 41 39 38 41 45 36 29 30 34 39 44 48 51 53 54 58 59 60 62
66 63 61 64 68 71 70 71 75 69 86 68 80 86 77 75 33 98 102 91 75 57 46 42 43 39 37 40 39 35 30 33 36 40 42 45 47 50 53 54 54 54 57
82 74 66 69 70 71 72 72 78 78 66 67 64 76 81 70 73 87 107 103 81 67 56 46 40 39 40 44 45 33 36 35 38 41 41 42 44 45 47 49 50 50 50
100 87 78 76 71 71 73 74 78 76 78 74 66 61 55 58 55 67 96 104 98 92 75 63 46 39 41 44 45 27 46 37 39 42 42 42 43 43 44 44 45 46 46
101 99 87 81 83 85 86 76 76 72 75 78 74 72 72 66 60 57 56 94 121 108 84 69 56 42 39 43 28 6 53 41 40 43 44 43 42 43 43 43 44 42 42
115 110 102 100 91 86 83 83 76 77 75 71 74 78 74 73 67 53 40 3 348 108 91 64 52 43 40 47 12 34 49 46 42 42 44 44 44 44 43 43 43 41 38
122 122 124 115 109 104 96 83 81 74 87 78 64 69 67 76 65 58 43 28 5 16 77 71 57 50 33 43 34 39 56 66 52 42 43 45 45 46 44 42 40 38 36
145 135 128 121 114 111 107 99 90 91 90 94 90 84 77 66 72 64 54 52 40 43 91 89 73 61 49 39 34 32 37 40 61 49 44 45 45 44 44 43 40 37 35
145 141 135 131 118 111 105 105 101 95 89 86 84 85 86 81 72 60 54 58 56 48 74 91 85 58 46 37 28 21 28 33 47 62 47 45 43 40 40 40 37 35 32
154 150 148 143 131 127 123 120 117 111 100 89 82 78 80 83 81 76 63 65 63 61 58 88 75 52 38 34 26 19 36 24 27 73 62 57 47 39 39 38 34 32 29
162 159 152 146 139 139 139 136 126 121 110 100 90 77 69 70 66 71 69 67 62 69 58 60 70 65 46 24 359 3 14 22 11 25 25 21 54 70 61 47 37 31 25
170 166 163 155 146 149 137 139 135 131 124 113 101 87 70 56 43 36 34 49 55 51 56 38 42 34 36 11 1 348 348 344 16 8 349 350 353 1 38 85 50 27 13
173 169 173 162 154 145 111 93 181 148 138 131 122 111 107 107 94 79 53 38 22 16 18 23 18 9 13 12 354 331 338 335 349 13 332 337 338 340 342 15 42 14 355
173 173 174 168 165 147 142 153 190 167 146 137 139 129 113 108 148 126 125 131 79 37 360 344 356 1 351 356 336 334 341 337 336 348 327 318 332 328 328 18 64 341 338
175 178 176 173 168 158 157 164 178 184 163 159 160 153 149 136 95 24 135 110 68 53 16 335 351 356 354 345 331 326 324 311 300 315 319 307 322 320 316 304 170 293 304
180 180 176 180 179 167 165 176 195 178 178 174 162 154 166 141 93 295 234 172 152 114 95 46 14 12 17 358 329 310 314 309 311 319 337 309 314 313 302 291 261 230 257
181 178 177 185 184 178 165 182 211 192 188 178 171 161 109 61 106 244 237 232 251 283 256 187 211 223 253 242 277 300 313 310 312 314 351 314 309 315 303 295 310 304 289